Location: ??????
(42.0089°N, 44.3281°E)
Time: 12:40:26
(UTC+00:00)

NOSS 8 (H) - Pass Details

Date: 30 May 2022
Orbit: 366 x 1779 km, 63.3° (Epoch: 28 June)

Event Time Altitude Azimuth Distance (km) Brightness Sun altitude
Rises 17:29:29 0° 339° (NNW) 2,434 9.4 -9.7°
Reaches altitude 10° 17:31:49 10° 359° (N) 1,695 8.0 -10.0°
Maximum altitude 17:34:35 19° 47° (NE) 1,380 6.8 -10.4°
Drops below altitude 10° 17:38:00 10° 94° (E) 2,143 7.4 -10.9°
Enters shadow 17:38:26 - 97° (E) 2,286 7.5 -11.0°
